Regional Weather Roundup
Issued by NWS

Home | Current Version | Previous Version | Text Only | Print | Product List | Glossary On
Versions: 1 2 3 4 5 6 7 8 9 10 11 12 13 14 15 16 17 18 19 20 21 22 23 24 25 26 27 28 29 30 31 32 33 34 35 36 37 38 39 40 41 42 43 44 45 46 47 48 49 50
000
ASUS43 KOAX 231202
RWRNE

WEATHER ROUNDUP FOR NEBRASKA
NATIONAL WEATHER SERVICE OMAHA NE
700 AM CDT TUE AUG 23 2016

NOTES: SATELLITE DATA IS BEING USED TO AUGMENT CLOUD COVER ABOVE
       12000 FEET.
       "FAIR" INDICATES FEW OR NO CLOUDS BELOW 12,000 FEET WITH NO
       SIGNIFICANT WEATHER AND/OR OBSTRUCTIONS TO VISIBILITY.

  * THESE STATIONS DO NOT REPORT WEATHER SUCH AS RAIN...SNOW OR FOG.

NEZ001>004-019>022-054>056-231300-
NEBRASKA PANHANDLE

CITY           SKY/WX    TMP DP  RH WIND       PRES   REMARKS
SCOTTSBLUFF    CLEAR     54  53  97 W3        29.86R FOG
6HR MIN TEMP:  54; 6HR MAX TEMP:  62;

ALLIANCE       CLEAR     57  55  93 S7        29.84R
6HR MIN TEMP:  56; 6HR MAX TEMP:  62;

CHADRON        CLEAR     58  47  66 SW8       29.79R
6HR MIN TEMP:  58; 6HR MAX TEMP:  78;

SIDNEY         CLEAR     52  50  93 W9        29.91R
6HR MIN TEMP:  51; 6HR MAX TEMP:  65;

$$

NEZ057>060-069>072-079>082-231300-
SOUTHWEST NEBRASKA

CITY           SKY/WX    TMP DP  RH WIND       PRES   REMARKS
NORTH PLATTE   PTCLDY    62  60  93 E7        29.84S
6HR MIN TEMP:  62; 6HR MAX TEMP:  74;

IMPERIAL       CLEAR     63  60  90 SE8       29.84R
6HR MIN TEMP:  63; 6HR MAX TEMP:  73;

LEXINGTON      CLOUDY    66  63  90 SE8       29.85S
MCCOOK         CLEAR     65  62  90 E10       29.84R
6HR MIN TEMP:  65; 6HR MAX TEMP:  69; 6HR PCP:  0.21;

OGALLALA       CLEAR     64  59  83 CALM      29.85R
$$

NEZ005>010-023>029-035>040-094-231300-
NORTH CENTRAL NEBRASKA

CITY           SKY/WX    TMP DP  RH WIND       PRES   REMARKS
VALENTINE      CLEAR     66  58  75 S8        29.80R
6HR MIN TEMP:  66; 6HR MAX TEMP:  76;

AINSWORTH      CLEAR     64  59  82 S14       29.82R
BROKEN BOW     CLOUDY    65  62  90 S6        29.84F
6HR MIN TEMP:  65; 6HR MAX TEMP:  72;

O`NEILL        CLOUDY    68  58  71 S7        29.84S
ORD            LGT RAIN  65  61  87 SE5       29.84F
6HR MIN TEMP:  65; 6HR MAX TEMP:  71; 6HR PCP:  0.06;

THEDFORD       PTCLDY    66  60  82 S7        29.85R
$$

NEZ041-046>049-061>064-073>077-083>087-231300-
SOUTH CENTRAL NEBRASKA

CITY           SKY/WX    TMP DP  RH WIND       PRES   REMARKS
GRAND ISLAND   LGT RAIN  67  62  84 S8        29.89S
6HR MIN TEMP:  67; 6HR MAX TEMP:  71; 6HR PCP: TRACE;

AURORA         CLOUDY    67  65  92 SW3       29.91R
HASTINGS       MOCLDY    67  63  87 SE3       29.90F
6HR MIN TEMP:  66; 6HR MAX TEMP:  71; 6HR PCP: TRACE;

HEBRON         CLOUDY    69  67  93 S14G20    29.90F
HOLDREGE       CLOUDY    64  61  91 SE9       29.86F
KEARNEY *      CLOUDY    64  63  94 E7        29.88S
$$

NEZ011>018-030>034-042>045-231300-
NORTHEAST NEBRASKA

CITY           SKY/WX    TMP DP  RH WIND       PRES   REMARKS
NORFOLK        MOCLDY    67  61  81 SE12      29.88F
6HR MIN TEMP:  67; 6HR MAX TEMP:  71;

ALBION         TSTM      66  61  82 SE8       29.88F
BLAIR          MOCLDY    67  64  88 S10       29.95S
FREMONT        MOCLDY    67  64  90 SE9       29.93S
TEKAMAH        PTCLDY    65  62  90 SE9       29.93R
6HR MIN TEMP:  65; 6HR MAX TEMP:  69;

WAYNE          CLOUDY    65  63  91 S7        29.91S
$$

NEZ050>053-065>068-078-088>093-231300-
SOUTHEAST NEBRASKA

CITY           SKY/WX    TMP DP  RH WIND       PRES   REMARKS
LINCOLN        PTCLDY    69  66  90 SE12      29.93S
6HR MIN TEMP:  68; 6HR MAX TEMP:  71;

OMAHA EPPLEY   MOCLDY    69  62  78 S17       29.96R
6HR MIN TEMP:  69; 6HR MAX TEMP:  72;

BEATRICE       CLEAR     67  65  94 S12       29.94S
FALLS CITY     CLOUDY    69  66  90 S13       29.99R
6HR MIN TEMP:  65; 6HR MAX TEMP:  69;

NEBRASKA CITY  CLEAR     64  64 100 S9        29.98S
PLATTSMOUTH    PTCLDY    65  63  94 SE10      29.97R
$$

NEZ044-045-051>053-067-231300-
OMAHA AREA

CITY           SKY/WX    TMP DP  RH WIND       PRES   REMARKS
OMAHA EPPLEY   MOCLDY    69  62  78 S17       29.96R
6HR MIN TEMP:  69; 6HR MAX TEMP:  72;

BLAIR          MOCLDY    67  64  88 S10       29.95S
FREMONT        MOCLDY    67  64  90 SE9       29.93S
MILLARD        CLOUDY    68  64  87 SE7       29.95S
OFFUTT AFB     MOCLDY    66  64  91 SE10      29.96R
PLATTSMOUTH    PTCLDY    65  63  94 SE10      29.97R
WAHOO          FAIR      64  63  94 SE8       29.93S
$$




USA.gov is the U.S. government's official web portal to all federal, state and local government web resources and services.